DELTA 1 DEB, 42642

Orbit data source: Space-Track

DELTA 1 DEB, 42642 is space debris in SSO originally from a launch on Thu, 12 Jun 1975 UTC launched from the Air Force Western Test Range (AFWTR). Debris objects in space refer to the collection of defunct objects orbiting the Earth. Examples of debris include non-operational satellites, rocket bodies, and fragments generated from explosions, collisions, or faulty payload assembly.

Loading next visibility...
Identifier
42642, 1975-052MB
Orbit
SSO
Country
Flag of USUS
Related business
Manufacturer
Unknown
Mission
Spacecraft
Bus & Motor
Unknown
Mass
Unknown
Launch date (UTC)
1975-06-12 (50 years ago)
Launch vehicle
Unknown
Launch site
Air Force Western Test Range (AFWTR)
Object type
Payload
Rocket body
Debris
Shape & HBR
Unknown shape, 0.1 m
Radar Cross Section
Small (<0.1 m²)

Expand to show TLE details & history
Last TLE update: 1 day ago

TLE from 1 day ago
0 DELTA 1 DEB
1 42642U 75052MB  25299.03970084  .00000150  00000-0  39805-3 0  9999
2 42642  99.8903  40.7462 0075970 211.7569 147.8960 13.31406289579902
Epoch: 2025-10-26T00:57Z
TLE epoch observation values (Epoch: 2025-10-26T00:57:10.152Z)
Latitude
-0.00005°
Longitude
-8.20771°
Altitude
1,192.738 km
Speed
7.234 km/s
True Right ascension
02h 42m 59s
True Declination
0° 00' 00"
Sunlit
Object was in full shadow at epoch
Visualization orbit readout
Latitude
Unknown
Longitude
Unknown
Altitude
Unknown
Speed
Unknown
Apparent Right ascension
Unknown
Apparent Declination
Unknown
Sunlit
N/A
Visualization observer readout
Local Sidereal Time
06:49:39
Azimuth
Unknown
Elevation
Unknown
Doppler factor
Unknown
Orbital elements
Apogee altitude
1,195.906 km
Perigee altitude
1,081.693 km
Semi-major axis
7,516.936 km
Eccentricity
0.0076
Inclination
99.8903°
RAAN
40.7462°
Arg. of periapsis
211.7569°
True anomaly
148.35496°
Mean anomaly
147.896°
Eccentric anomaly
148.12585°
Mean motion
3.33029 °/min
Orbital period
108.1 mins
BSTAR
0.00039805
Loading maneuver chart data...
Computing Atmospheric mass density...
Loading historical data...
Loading historical data...
Loading historical data...
Loading historical data...
Loading historical data...
Loading historical data...
Loading historical data...

Documentation

Showing up to 5 results
|